Location: Cointrin
(46.2167°N, 6.1167°E)
Time: 15:25:49
(UTC+00:00)

CZ-4B R/B - Pass Details

Date: 08 February 2023
Orbit: 809 x 881 km, 99.0° (Epoch: 21 March)

Event Time Altitude Azimuth Distance (km) Brightness Sun altitude
Rises 18:21:24 0° 160° (SSE) 3,343 6.2 -16.1°
Reaches altitude 10° 18:23:43 10° 159° (SSE) 2,423 5.4 -16.5°
Maximum altitude 18:29:05 81° 73° (ENE) 853 3.1 -17.5°
Drops below altitude 10° 18:34:36 10° 347° (NNW) 2,488 5.8 -18.4°
Sets 18:37:00 0° 347° (NNW) 3,439 6.5 -18.8°
